RPA3448 KEWR-KEYW

Flight info

Callsign RPA3448
Flight time 3h 5m
Altitude 32000
Route ELVAE NECCK WHITE Q409 CRPLR Q85 ROYCO Q83 JEVED Q97 EBAYY FNTSY1
Aircraft E75L/M-SDE3GILORVW/S

Departure

Time 2026-05-07 22:57
Airport Newark Liberty International Airport (KEWR)

Arrival

Time 2026-05-08 02:02
Airport Key West International Airport (KEYW)
Time Latitude Longitude Altitude Speed Heading
2026-05-07 22:35 40.69683 -74.17506 20 ft 0 kts 309°
2026-05-07 22:45 40.69674 -74.17493 20 ft 4 kts 314°
2026-05-07 22:45 40.69654 -74.17473 20 ft 4 kts 340°
2026-05-07 22:45 40.69632 -74.17475 20 ft 2 kts 40°
2026-05-07 22:46 40.69628 -74.17480 20 ft 0 kts 40°
2026-05-07 22:49 40.69636 -74.17471 21 ft 2 kts 40°
2026-05-07 22:49 40.69655 -74.17450 20 ft 5 kts 40°
2026-05-07 22:49 40.69684 -74.17416 20 ft 7 kts 41°
2026-05-07 22:49 40.69722 -74.17372 21 ft 8 kts 40°
2026-05-07 22:50 40.69769 -74.17319 21 ft 8 kts 40°
2026-05-07 22:50 40.69786 -74.17267 20 ft 6 kts 120°
2026-05-07 22:50 40.69754 -74.17223 20 ft 8 kts 139°
2026-05-07 22:50 40.69707 -74.17176 22 ft 9 kts 146°
2026-05-07 22:51 40.69645 -74.17132 20 ft 11 kts 156°
2026-05-07 22:51 40.69569 -74.17095 20 ft 12 kts 165°
2026-05-07 22:51 40.69512 -74.17079 20 ft 13 kts 171°
2026-05-07 22:51 40.69391 -74.17071 22 ft 14 kts 188°
2026-05-07 22:52 40.69294 -74.17110 21 ft 15 kts 205°
2026-05-07 22:52 40.69198 -74.17170 20 ft 15 kts 206°
2026-05-07 22:52 40.69102 -74.17233 21 ft 16 kts 206°
2026-05-07 22:52 40.69035 -74.17275 20 ft 16 kts 206°
2026-05-07 22:53 40.68936 -74.17338 20 ft 16 kts 206°
2026-05-07 22:53 40.68839 -74.17399 21 ft 13 kts 205°
2026-05-07 22:53 40.68756 -74.17452 20 ft 14 kts 206°
2026-05-07 22:53 40.68668 -74.17508 20 ft 14 kts 205°
2026-05-07 22:54 40.68580 -74.17563 20 ft 13 kts 206°
2026-05-07 22:54 40.68500 -74.17614 20 ft 12 kts 206°
2026-05-07 22:54 40.68443 -74.17632 22 ft 8 kts 152°
2026-05-07 22:54 40.68405 -74.17580 20 ft 8 kts 152°
2026-05-07 22:55 40.68347 -74.17592 21 ft 10 kts 205°
2026-05-07 22:55 40.68281 -74.17634 20 ft 11 kts 205°
2026-05-07 22:55 40.68233 -74.17657 20 ft 4 kts 156°
2026-05-07 22:55 40.68211 -74.17626 19 ft 6 kts 120°
2026-05-07 22:56 40.68191 -74.17571 20 ft 8 kts 115°
2026-05-07 22:56 40.68202 -74.17525 20 ft 6 kts 32°
2026-05-07 22:56 40.68261 -74.17486 20 ft 26 kts 25°
2026-05-07 22:56 40.68641 -74.17245 21 ft 93 kts 26°
2026-05-07 22:57 40.69406 -74.16757 21 ft 150 kts 25°
2026-05-07 22:57 40.70460 -74.16087 324 ft 177 kts 23°
2026-05-07 22:57 40.71561 -74.15247 881 ft 196 kts 34°
2026-05-07 22:57 40.72590 -74.14103 1580 ft 200 kts 40°
2026-05-07 22:58 40.73581 -74.12763 2158 ft 209 kts 45°
2026-05-07 22:58 40.74611 -74.11288 2703 ft 223 kts 44°
2026-05-07 22:58 40.75726 -74.09804 3303 ft 238 kts 39°
2026-05-07 22:58 40.77284 -74.08774 3465 ft 264 kts
2026-05-07 22:59 40.79029 -74.09195 4244 ft 261 kts 332°
2026-05-07 22:59 40.80439 -74.10683 5155 ft 257 kts 309°
2026-05-07 22:59 40.81290 -74.12714 5975 ft 257 kts 287°
2026-05-07 22:59 40.81299 -74.15078 6602 ft 267 kts 256°
2026-05-07 23:00 40.80550 -74.17333 7240 ft 270 kts 247°
2026-05-07 23:00 40.79702 -74.19580 7798 ft 275 kts 243°
2026-05-07 23:00 40.78385 -74.21414 8338 ft 286 kts 214°
2026-05-07 23:00 40.76464 -74.22293 8893 ft 292 kts 194°
2026-05-07 23:01 40.74971 -74.22655 9246 ft 296 kts 193°
2026-05-07 23:01 40.72966 -74.23106 9814 ft 297 kts 193°
2026-05-07 23:01 40.70936 -74.23546 10335 ft 302 kts 194°
2026-05-07 23:01 40.68841 -74.23990 10382 ft 322 kts 193°
2026-05-07 23:02 40.66541 -74.24420 10499 ft 338 kts 192°
2026-05-07 23:02 40.64286 -74.24820 11040 ft 337 kts 193°
2026-05-07 23:02 40.61935 -74.25268 11794 ft 331 kts 194°
2026-05-07 23:02 40.59665 -74.25710 12627 ft 324 kts 195°
2026-05-07 23:03 40.57494 -74.26104 13296 ft 323 kts 195°
2026-05-07 23:03 40.55212 -74.26252 13762 ft 341 kts 181°
2026-05-07 23:03 40.52900 -74.25415 14319 ft 351 kts 171°
2026-05-07 23:03 40.50608 -74.24428 14815 ft 355 kts 171°
2026-05-07 23:04 40.48233 -74.23408 15432 ft 356 kts 171°
2026-05-07 23:04 40.45877 -74.22399 16019 ft 358 kts 172°
2026-05-07 23:04 40.43497 -74.21375 16564 ft 361 kts 172°
2026-05-07 23:04 40.41087 -74.20337 17109 ft 364 kts 172°
2026-05-07 23:05 40.38714 -74.19314 17694 ft 365 kts 172°
2026-05-07 23:05 40.36299 -74.18263 18216 ft 368 kts 172°
2026-05-07 23:05 40.33865 -74.17200 18762 ft 371 kts 172°
2026-05-07 23:05 40.31416 -74.16413 19352 ft 355 kts 186°
2026-05-07 23:06 40.29069 -74.16798 20052 ft 334 kts 203°
2026-05-07 23:06 40.26799 -74.17489 20745 ft 336 kts 201°
2026-05-07 23:06 40.24475 -74.18061 21329 ft 339 kts 200°
2026-05-07 23:06 40.22153 -74.18632 21908 ft 339 kts 201°
2026-05-07 23:07 40.19866 -74.19256 22412 ft 339 kts 202°
2026-05-07 23:07 40.17579 -74.19938 23075 ft 335 kts 203°
2026-05-07 23:07 40.15400 -74.20615 23592 ft 335 kts 203°
2026-05-07 23:07 40.13086 -74.21335 24091 ft 335 kts 203°
2026-05-07 23:08 40.10869 -74.22013 24549 ft 337 kts 203°
2026-05-07 23:08 40.08530 -74.22723 24983 ft 339 kts 203°
2026-05-07 23:08 40.06237 -74.23414 25433 ft 340 kts 203°
2026-05-07 23:08 40.03924 -74.24102 25998 ft 338 kts 203°
2026-05-07 23:09 40.01670 -74.24853 26560 ft 327 kts 211°
2026-05-07 23:09 39.99825 -74.26323 27086 ft 311 kts 225°
2026-05-07 23:09 39.98149 -74.28074 27551 ft 313 kts 220°
2026-05-07 23:09 39.96263 -74.29588 28061 ft 313 kts 217°
2026-05-07 23:10 39.94397 -74.31027 28550 ft 310 kts 219°
2026-05-07 23:10 39.92648 -74.32537 28999 ft 307 kts 221°
2026-05-07 23:10 39.90897 -74.34233 29458 ft 303 kts 223°
2026-05-07 23:10 39.89239 -74.35910 29941 ft 301 kts 224°
2026-05-07 23:11 39.87621 -74.37519 30380 ft 299 kts 223°
2026-05-07 23:11 39.85915 -74.39166 30719 ft 300 kts 223°
2026-05-07 23:11 39.84248 -74.40745 31113 ft 299 kts 223°
2026-05-07 23:11 39.82583 -74.42319 31478 ft 297 kts 223°
2026-05-07 23:12 39.81148 -74.44185 31757 ft 292 kts 232°
2026-05-07 23:12 39.79744 -74.46138 32056 ft 295 kts 229°
2026-05-07 23:12 39.78240 -74.47987 31927 ft 307 kts 228°
2026-05-07 23:13 39.75088 -74.51895 31870 ft 324 kts 229°
2026-05-07 23:13 39.71918 -74.56116 31853 ft 334 kts 230°
2026-05-07 23:14 39.68707 -74.60393 31849 ft 336 kts 230°
2026-05-07 23:14 39.65436 -74.64701 31860 ft 336 kts 230°
2026-05-07 23:15 39.62338 -74.68780 31854 ft 336 kts 229°
2026-05-07 23:15 39.59037 -74.73122 31860 ft 337 kts 230°
2026-05-07 23:16 39.55745 -74.77452 31860 ft 338 kts 230°
2026-05-07 23:16 39.52468 -74.81754 31853 ft 338 kts 230°
2026-05-07 23:17 39.49152 -74.86097 31860 ft 338 kts 230°
2026-05-07 23:17 39.45915 -74.90336 31866 ft 340 kts 230°
2026-05-07 23:18 39.42694 -74.94550 31860 ft 339 kts 230°
2026-05-07 23:18 39.39414 -74.98821 31861 ft 340 kts 230°
2026-05-07 23:19 39.36141 -75.03095 31865 ft 342 kts 230°
2026-05-07 23:19 39.32822 -75.07415 31865 ft 341 kts 230°
2026-05-07 23:20 39.29526 -75.11697 31862 ft 341 kts 230°
2026-05-07 23:20 39.26226 -75.15633 31868 ft 344 kts 227°
2026-05-07 23:21 39.22690 -75.19655 31858 ft 343 kts 228°
2026-05-07 23:21 39.19213 -75.23744 31852 ft 343 kts 228°
2026-05-07 23:22 39.15694 -75.27901 31865 ft 344 kts 228°
2026-05-07 23:22 39.12175 -75.32027 31854 ft 344 kts 228°
2026-05-07 23:23 39.08685 -75.36111 31863 ft 343 kts 228°
2026-05-07 23:23 39.05207 -75.40180 31864 ft 343 kts 228°
2026-05-07 23:24 39.00943 -75.43347 31893 ft 369 kts 208°
2026-05-07 23:24 38.98591 -75.44028 31871 ft 381 kts 201°
2026-05-07 23:24 38.96016 -75.44595 31836 ft 375 kts 203°
2026-05-07 23:25 38.90874 -75.45763 31877 ft 381 kts 200°
2026-05-07 23:25 38.85547 -75.46461 31875 ft 386 kts 198°
2026-05-07 23:26 38.80256 -75.47108 31898 ft 384 kts 199°
2026-05-07 23:26 38.75128 -75.47835 31882 ft 383 kts 199°
2026-05-07 23:27 38.67322 -75.48908 31895 ft 385 kts 199°
2026-05-07 23:27 38.62257 -75.49586 31895 ft 385 kts 199°
2026-05-07 23:28 38.56944 -75.50299 31899 ft 384 kts 199°
2026-05-07 23:28 38.51732 -75.51008 31902 ft 385 kts 199°
2026-05-07 23:29 38.46393 -75.51716 31901 ft 385 kts 199°
2026-05-07 23:29 38.41161 -75.52405 31899 ft 387 kts 200°
2026-05-07 23:30 38.36230 -75.53126 31904 ft 378 kts 204°
2026-05-07 23:30 38.33864 -75.54131 31907 ft 358 kts 217°
2026-05-07 23:30 38.31801 -75.55753 31928 ft 348 kts 223°
2026-05-07 23:31 38.27648 -75.58960 31866 ft 352 kts 220°
2026-05-07 23:31 38.23736 -75.62111 31914 ft 349 kts 223°
2026-05-07 23:32 38.19962 -75.65480 31884 ft 346 kts 224°
2026-05-07 23:32 38.16010 -75.68955 31907 ft 349 kts 223°
2026-05-07 23:33 38.12169 -75.72251 31891 ft 347 kts 223°
2026-05-07 23:33 38.08859 -75.75111 31914 ft 348 kts 223°
2026-05-07 23:34 38.04866 -75.78568 31910 ft 348 kts 223°
2026-05-07 23:34 38.00927 -75.81966 31912 ft 347 kts 223°
2026-05-07 23:35 37.97129 -75.85247 31909 ft 348 kts 223°
2026-05-07 23:35 37.93104 -75.88702 31915 ft 347 kts 223°
2026-05-07 23:36 37.89207 -75.92049 31909 ft 347 kts 223°
2026-05-07 23:36 37.85371 -75.95343 31905 ft 347 kts 223°
2026-05-07 23:37 37.81482 -75.98680 31911 ft 348 kts 223°
2026-05-07 23:37 37.77443 -76.02123 31900 ft 347 kts 223°
2026-05-07 23:38 37.73501 -76.05499 31915 ft 348 kts 223°
2026-05-07 23:38 37.69470 -76.08955 31906 ft 348 kts 223°
2026-05-07 23:39 37.65540 -76.12297 31908 ft 349 kts 223°
2026-05-07 23:39 37.61595 -76.15660 31911 ft 349 kts 223°
2026-05-07 23:40 37.57602 -76.18923 31911 ft 353 kts 221°
2026-05-07 23:40 37.53386 -76.22014 31903 ft 354 kts 220°
2026-05-07 23:41 37.49242 -76.25127 31910 ft 355 kts 221°
2026-05-07 23:41 37.45140 -76.28283 31910 ft 355 kts 221°
2026-05-07 23:42 37.40896 -76.31516 31918 ft 356 kts 221°
2026-05-07 23:42 37.36644 -76.34732 31916 ft 357 kts 221°
2026-05-07 23:43 37.32472 -76.37896 31921 ft 358 kts 221°
2026-05-07 23:43 37.28211 -76.41122 31918 ft 359 kts 221°
2026-05-07 23:44 37.23962 -76.44340 31918 ft 359 kts 221°
2026-05-07 23:44 37.19699 -76.47558 31922 ft 360 kts 221°
2026-05-07 23:45 37.15503 -76.50721 31920 ft 361 kts 221°
2026-05-07 23:45 37.11227 -76.53943 31922 ft 362 kts 221°
2026-05-07 23:46 37.07045 -76.57089 31901 ft 362 kts 221°
2026-05-07 23:46 37.02793 -76.60286 31907 ft 362 kts 221°
2026-05-07 23:47 36.98743 -76.63325 31900 ft 365 kts 221°
2026-05-07 23:47 36.94375 -76.66595 31924 ft 364 kts 221°
2026-05-07 23:48 36.90193 -76.69725 31921 ft 365 kts 221°
2026-05-07 23:48 36.86062 -76.72808 31914 ft 366 kts 221°
2026-05-07 23:49 36.81936 -76.75887 31913 ft 367 kts 221°
2026-05-07 23:49 36.77577 -76.79137 31919 ft 367 kts 221°
2026-05-07 23:50 36.73334 -76.82297 31920 ft 367 kts 221°
2026-05-07 23:50 36.69009 -76.85519 31919 ft 370 kts 221°
2026-05-07 23:51 36.64730 -76.88692 31930 ft 368 kts 221°
2026-05-07 23:51 36.60374 -76.91924 31926 ft 368 kts 221°
2026-05-07 23:52 36.55992 -76.95168 31924 ft 369 kts 221°
2026-05-07 23:52 36.51705 -76.98334 31928 ft 370 kts 221°
2026-05-07 23:53 36.47342 -77.01557 31929 ft 371 kts 221°
2026-05-07 23:53 36.43225 -77.04598 31927 ft 371 kts 221°
2026-05-07 23:54 36.39018 -77.07692 31925 ft 371 kts 221°
2026-05-07 23:54 36.34768 -77.10819 31932 ft 371 kts 221°
2026-05-07 23:55 36.30413 -77.14022 31928 ft 371 kts 221°
2026-05-07 23:55 36.26068 -77.17209 31927 ft 371 kts 221°
2026-05-07 23:56 36.21721 -77.20392 31919 ft 371 kts 221°
2026-05-07 23:56 36.17355 -77.23588 31926 ft 371 kts 221°
2026-05-07 23:57 36.13093 -77.26698 31927 ft 371 kts 221°
2026-05-07 23:57 36.09333 -77.29446 31927 ft 371 kts 221°
2026-05-07 23:58 36.04977 -77.32690 31917 ft 366 kts 226°
2026-05-07 23:58 36.01035 -77.36505 31906 ft 366 kts 226°
2026-05-07 23:59 35.97002 -77.40220 31941 ft 371 kts 226°
2026-05-07 23:59 35.92976 -77.44087 31916 ft 370 kts 227°
2026-05-08 00:00 35.88947 -77.47986 31932 ft 371 kts 227°
2026-05-08 00:00 35.85131 -77.51639 31926 ft 371 kts 227°
2026-05-08 00:01 35.81036 -77.55550 31928 ft 370 kts 227°
2026-05-08 00:01 35.76976 -77.59431 31932 ft 370 kts 227°
2026-05-08 00:02 35.73033 -77.63202 31919 ft 370 kts 227°
2026-05-08 00:02 35.69111 -77.66943 31925 ft 370 kts 227°
2026-05-08 00:03 35.65048 -77.70813 31929 ft 370 kts 227°
2026-05-08 00:03 35.61055 -77.74609 31929 ft 370 kts 227°
2026-05-08 00:04 35.57101 -77.78361 31926 ft 370 kts 227°
2026-05-08 00:04 35.53042 -77.82219 31931 ft 371 kts 227°
2026-05-08 00:05 35.49074 -77.85978 31931 ft 371 kts 227°
2026-05-08 00:05 35.45010 -77.89822 31923 ft 372 kts 227°
2026-05-08 00:06 35.40930 -77.93678 31911 ft 372 kts 227°
2026-05-08 00:06 35.36953 -77.97433 31907 ft 374 kts 226°
2026-05-08 00:07 35.33230 -78.00939 31896 ft 373 kts 226°
2026-05-08 00:07 35.29237 -78.04693 31911 ft 370 kts 227°
2026-05-08 00:08 35.25188 -78.08509 31897 ft 370 kts 227°
2026-05-08 00:08 35.21069 -78.12376 31905 ft 372 kts 227°
2026-05-08 00:09 35.17035 -78.16153 31946 ft 371 kts 229°
2026-05-08 00:09 35.13028 -78.19914 31920 ft 372 kts 229°
2026-05-08 00:10 35.08973 -78.23709 31916 ft 373 kts 229°
2026-05-08 00:10 35.05540 -78.26915 31903 ft 373 kts 229°
2026-05-08 00:11 35.01491 -78.30682 31904 ft 374 kts 229°
2026-05-08 00:11 34.97374 -78.34530 31908 ft 375 kts 229°
2026-05-08 00:12 34.93250 -78.38420 31904 ft 376 kts 229°
2026-05-08 00:12 34.89153 -78.42272 31908 ft 376 kts 228°
2026-05-08 00:13 34.85269 -78.45921 31893 ft 377 kts 228°
2026-05-08 00:13 34.81109 -78.49822 31902 ft 378 kts 228°
2026-05-08 00:14 34.77105 -78.53567 31886 ft 378 kts 228°
2026-05-08 00:14 34.72932 -78.57468 31892 ft 379 kts 228°
2026-05-08 00:15 34.68878 -78.61253 31877 ft 379 kts 228°
2026-05-08 00:15 34.64713 -78.65138 31882 ft 380 kts 228°
2026-05-08 00:16 34.60729 -78.68850 31880 ft 380 kts 228°
2026-05-08 00:16 34.56727 -78.72573 31879 ft 380 kts 228°
2026-05-08 00:17 34.52734 -78.76283 31869 ft 381 kts 228°
2026-05-08 00:17 34.48581 -78.80128 31873 ft 381 kts 228°
2026-05-08 00:18 34.44493 -78.83880 31858 ft 382 kts 227°
2026-05-08 00:18 34.40165 -78.87674 31877 ft 386 kts 225°
2026-05-08 00:19 34.35912 -78.91171 31861 ft 386 kts 225°
2026-05-08 00:19 34.31752 -78.94662 31860 ft 385 kts 226°
2026-05-08 00:20 34.27410 -78.98346 31862 ft 385 kts 226°
2026-05-08 00:20 34.23001 -79.02056 31861 ft 385 kts 225°
2026-05-08 00:21 34.18607 -79.05734 31860 ft 385 kts 225°
2026-05-08 00:21 34.14249 -79.09379 31850 ft 385 kts 225°
2026-05-08 00:22 34.09851 -79.13058 31854 ft 385 kts 225°
2026-05-08 00:22 34.05432 -79.16748 31865 ft 385 kts 225°
2026-05-08 00:23 34.01093 -79.20367 31857 ft 385 kts 225°
2026-05-08 00:23 33.96676 -79.24064 31869 ft 389 kts 225°
2026-05-08 00:24 33.92314 -79.27708 31844 ft 392 kts 225°
2026-05-08 00:24 33.87866 -79.31399 31873 ft 392 kts 225°
2026-05-08 00:25 33.83441 -79.35086 31854 ft 392 kts 225°
2026-05-08 00:25 33.79069 -79.38720 31861 ft 393 kts 225°
2026-05-08 00:26 33.74576 -79.42451 31877 ft 393 kts 225°
2026-05-08 00:26 33.70115 -79.46147 31870 ft 393 kts 225°
2026-05-08 00:27 33.65714 -79.49787 31879 ft 393 kts 225°
2026-05-08 00:27 33.61192 -79.53528 31884 ft 392 kts 225°
2026-05-08 00:28 33.56803 -79.57152 31880 ft 393 kts 225°
2026-05-08 00:28 33.52299 -79.60869 31880 ft 393 kts 225°
2026-05-08 00:29 33.47982 -79.64422 31893 ft 392 kts 225°
2026-05-08 00:29 33.43550 -79.68070 31882 ft 394 kts 225°
2026-05-08 00:30 33.39194 -79.71644 31894 ft 394 kts 225°
2026-05-08 00:30 33.34811 -79.75240 31885 ft 394 kts 224°
2026-05-08 00:31 33.30418 -79.78836 31892 ft 394 kts 224°
2026-05-08 00:31 33.25997 -79.82453 31902 ft 395 kts 224°
2026-05-08 00:32 33.21481 -79.86142 31900 ft 396 kts 224°
2026-05-08 00:32 33.16958 -79.89835 31898 ft 397 kts 224°
2026-05-08 00:33 33.12494 -79.93474 31896 ft 397 kts 224°
2026-05-08 00:33 33.07953 -79.97169 31897 ft 397 kts 224°
2026-05-08 00:34 33.03475 -80.00804 31898 ft 399 kts 224°
2026-05-08 00:34 32.98912 -80.04509 31902 ft 396 kts 224°
2026-05-08 00:35 32.94529 -80.08071 31894 ft 398 kts 224°
2026-05-08 00:35 32.89915 -80.11805 31901 ft 399 kts 224°
2026-05-08 00:36 32.85494 -80.15377 31907 ft 398 kts 224°
2026-05-08 00:36 32.80965 -80.19038 31893 ft 399 kts 224°
2026-05-08 00:37 32.76329 -80.22779 31921 ft 401 kts 224°
2026-05-08 00:38 32.69480 -80.28293 31913 ft 401 kts 223°
2026-05-08 00:38 32.64855 -80.32013 31916 ft 401 kts 223°
2026-05-08 00:39 32.60343 -80.35639 31918 ft 401 kts 223°
2026-05-08 00:39 32.55695 -80.39287 31921 ft 406 kts 220°
2026-05-08 00:40 32.50922 -80.42390 31913 ft 409 kts 218°
2026-05-08 00:40 32.45968 -80.45641 31913 ft 407 kts 219°
2026-05-08 00:41 32.41158 -80.48937 31916 ft 408 kts 219°
2026-05-08 00:41 32.36254 -80.52260 31920 ft 408 kts 219°
2026-05-08 00:42 32.31338 -80.55566 31934 ft 408 kts 219°
2026-05-08 00:42 32.26464 -80.58849 31924 ft 408 kts 219°
2026-05-08 00:43 32.21571 -80.62140 31926 ft 408 kts 219°
2026-05-08 00:43 32.16690 -80.65420 31932 ft 408 kts 219°
2026-05-08 00:44 32.11806 -80.68696 31927 ft 408 kts 219°
2026-05-08 00:44 32.06908 -80.71977 31927 ft 408 kts 219°
2026-05-08 00:45 32.02090 -80.75199 31931 ft 408 kts 219°
2026-05-08 00:45 31.97097 -80.78542 31921 ft 411 kts 219°
2026-05-08 00:46 31.92480 -80.81632 31905 ft 413 kts 218°
2026-05-08 00:46 31.87571 -80.84894 31926 ft 413 kts 218°
2026-05-08 00:47 31.82532 -80.88251 31932 ft 413 kts 218°
2026-05-08 00:47 31.77549 -80.91572 31907 ft 413 kts 218°
2026-05-08 00:48 31.72519 -80.94909 31920 ft 413 kts 218°
2026-05-08 00:48 31.67581 -80.98184 31920 ft 413 kts 218°
2026-05-08 00:49 31.62715 -81.01411 31922 ft 413 kts 218°
2026-05-08 00:49 31.57685 -81.03854 31949 ft 438 kts 200°
2026-05-08 00:50 31.51748 -81.04500 31915 ft 447 kts 194°
2026-05-08 00:50 31.45570 -81.04914 31917 ft 448 kts 193°
2026-05-08 00:51 31.39273 -81.05270 31935 ft 448 kts 193°
2026-05-08 00:51 31.34230 -81.05581 31946 ft 448 kts 193°
2026-05-08 00:52 31.28058 -81.05972 31943 ft 448 kts 193°
2026-05-08 00:52 31.22022 -81.06316 31951 ft 452 kts 192°
2026-05-08 00:53 31.15713 -81.06391 31947 ft 454 kts 190°
2026-05-08 00:53 31.09409 -81.06467 31959 ft 453 kts 191°
2026-05-08 00:54 31.03669 -81.06607 31949 ft 453 kts 191°
2026-05-08 00:54 30.97383 -81.06751 31959 ft 453 kts 191°
2026-05-08 00:55 30.91137 -81.06880 31972 ft 453 kts 191°
2026-05-08 00:55 30.85207 -81.07007 31967 ft 455 kts 191°
2026-05-08 00:56 30.78919 -81.07140 31961 ft 455 kts 190°
2026-05-08 00:56 30.72622 -81.07273 31963 ft 455 kts 191°
2026-05-08 00:57 30.66337 -81.07408 31963 ft 455 kts 191°
2026-05-08 00:57 30.60033 -81.07570 31965 ft 454 kts 192°
2026-05-08 00:58 30.54016 -81.07952 31962 ft 452 kts 193°
2026-05-08 00:58 30.47789 -81.08364 31964 ft 453 kts 192°
2026-05-08 00:59 30.41505 -81.08716 31964 ft 454 kts 192°
2026-05-08 00:59 30.35321 -81.09067 31956 ft 454 kts 192°
2026-05-08 01:00 30.29039 -81.09432 31966 ft 454 kts 192°
2026-05-08 01:00 30.22763 -81.09790 31961 ft 454 kts 192°
2026-05-08 01:01 30.16432 -81.10156 31970 ft 455 kts 192°
2026-05-08 01:01 30.10120 -81.10515 31978 ft 455 kts 192°
2026-05-08 01:02 30.03878 -81.10876 31970 ft 455 kts 192°
2026-05-08 01:02 29.97565 -81.11239 31975 ft 456 kts 192°
2026-05-08 01:03 29.91224 -81.11602 31969 ft 458 kts 191°
2026-05-08 01:03 29.84854 -81.11968 31974 ft 458 kts 191°
2026-05-08 01:04 29.78527 -81.12267 31983 ft 459 kts 189°
2026-05-08 01:04 29.72121 -81.12262 31965 ft 460 kts 188°
2026-05-08 01:05 29.65691 -81.12288 31968 ft 460 kts 188°
2026-05-08 01:05 29.59425 -81.12377 31977 ft 461 kts 188°
2026-05-08 01:06 29.52934 -81.12510 31979 ft 459 kts 189°
2026-05-08 01:06 29.46519 -81.12782 31967 ft 459 kts 190°
2026-05-08 01:07 29.40193 -81.13023 31975 ft 460 kts 189°
2026-05-08 01:07 29.33910 -81.13231 31971 ft 460 kts 189°
2026-05-08 01:08 29.27522 -81.12418 31985 ft 481 kts 169°
2026-05-08 01:08 29.21175 -81.09739 31942 ft 484 kts 165°
2026-05-08 01:09 29.14906 -81.06839 32000 ft 485 kts 165°
2026-05-08 01:09 29.08642 -81.04092 31976 ft 484 kts 166°
2026-05-08 01:10 29.02595 -81.01470 31977 ft 484 kts 166°
2026-05-08 01:10 28.96279 -80.98702 31980 ft 483 kts 165°
2026-05-08 01:11 28.89991 -80.95944 31977 ft 483 kts 165°
2026-05-08 01:11 28.83743 -80.93212 31979 ft 483 kts 165°
2026-05-08 01:12 28.77471 -80.90481 31981 ft 484 kts 165°
2026-05-08 01:12 28.71231 -80.87762 31988 ft 484 kts 165°
2026-05-08 01:13 28.64900 -80.85101 31989 ft 482 kts 167°
2026-05-08 01:13 28.58683 -80.82803 31974 ft 481 kts 168°
2026-05-08 01:14 28.52433 -80.80435 31996 ft 481 kts 167°
2026-05-08 01:14 28.46202 -80.78009 31999 ft 481 kts 167°
2026-05-08 01:15 28.39847 -80.75562 31990 ft 481 kts 167°
2026-05-08 01:15 28.33789 -80.73246 31979 ft 481 kts 167°
2026-05-08 01:16 28.27473 -80.70821 31974 ft 482 kts 167°
2026-05-08 01:16 28.21086 -80.68376 31972 ft 481 kts 167°
2026-05-08 01:17 28.14816 -80.65977 31975 ft 481 kts 167°
2026-05-08 01:17 28.08641 -80.63620 31983 ft 480 kts 167°
2026-05-08 01:18 28.02402 -80.61239 31988 ft 482 kts 167°
2026-05-08 01:18 27.96078 -80.58829 31988 ft 481 kts 166°
2026-05-08 01:19 27.89785 -80.56434 31986 ft 481 kts 166°
2026-05-08 01:19 27.83669 -80.54111 32001 ft 480 kts 166°
2026-05-08 01:20 27.77397 -80.51731 32001 ft 481 kts 166°
2026-05-08 01:20 27.70944 -80.50154 32009 ft 465 kts 186°
2026-05-08 01:21 27.64867 -80.50535 31969 ft 463 kts 191°
2026-05-08 01:21 27.58450 -80.51167 32032 ft 463 kts 190°
2026-05-08 01:22 27.52059 -80.51679 31998 ft 463 kts 189°
2026-05-08 01:22 27.46074 -80.52126 32012 ft 464 kts 189°
2026-05-08 01:23 27.39648 -80.52645 32014 ft 463 kts 189°
2026-05-08 01:23 27.33215 -80.53162 32008 ft 463 kts 189°
2026-05-08 01:24 27.27158 -80.53640 32011 ft 464 kts 189°
2026-05-08 01:24 27.20687 -80.54152 32010 ft 464 kts 189°
2026-05-08 01:25 27.14231 -80.54664 32009 ft 464 kts 189°
2026-05-08 01:25 27.08957 -80.55082 32012 ft 465 kts 189°
2026-05-08 01:26 27.02510 -80.55593 32008 ft 464 kts 189°
2026-05-08 01:26 26.96051 -80.56102 32025 ft 465 kts 189°
2026-05-08 01:27 26.89935 -80.56582 32014 ft 465 kts 189°
2026-05-08 01:27 26.83470 -80.57097 32022 ft 465 kts 189°
2026-05-08 01:28 26.77012 -80.57606 32025 ft 466 kts 188°
2026-05-08 01:28 26.70546 -80.58113 32032 ft 466 kts 188°
2026-05-08 01:29 26.64066 -80.58621 32024 ft 466 kts 188°
2026-05-08 01:29 26.57907 -80.59102 32032 ft 466 kts 188°
2026-05-08 01:30 26.51458 -80.59613 32024 ft 466 kts 188°
2026-05-08 01:30 26.44991 -80.60117 32034 ft 467 kts 188°
2026-05-08 01:31 26.38621 -80.60615 32023 ft 466 kts 188°
2026-05-08 01:31 26.32061 -80.61128 32030 ft 467 kts 188°
2026-05-08 01:32 26.25589 -80.61634 32030 ft 467 kts 188°
2026-05-08 01:32 26.19097 -80.62133 32027 ft 467 kts 188°
2026-05-08 01:33 26.12681 -80.62605 32025 ft 467 kts 188°
2026-05-08 01:33 26.06140 -80.63091 32029 ft 467 kts 188°
2026-05-08 01:34 25.99643 -80.63578 32029 ft 467 kts 188°
2026-05-08 01:34 25.93174 -80.64064 32028 ft 470 kts 187°
2026-05-08 01:35 25.87066 -80.64517 32032 ft 469 kts 187°
2026-05-08 01:35 25.80597 -80.64996 32027 ft 469 kts 187°
2026-05-08 01:36 25.74078 -80.65481 32032 ft 469 kts 187°
2026-05-08 01:36 25.71072 -80.65704 31871 ft 466 kts 187°
2026-05-08 01:36 25.67861 -80.65940 31508 ft 454 kts 187°
2026-05-08 01:36 25.64747 -80.66166 30934 ft 447 kts 187°
2026-05-08 01:37 25.61642 -80.66400 30392 ft 441 kts 188°
2026-05-08 01:37 25.58602 -80.66628 29717 ft 438 kts 188°
2026-05-08 01:37 25.55559 -80.66854 29198 ft 431 kts 188°
2026-05-08 01:37 25.52712 -80.67063 28611 ft 428 kts 187°
2026-05-08 01:38 25.49808 -80.67277 28056 ft 425 kts 188°
2026-05-08 01:38 25.46814 -80.67501 27535 ft 430 kts 188°
2026-05-08 01:38 25.43797 -80.67728 26892 ft 438 kts 187°
2026-05-08 01:38 25.40750 -80.67953 26334 ft 438 kts 187°
2026-05-08 01:39 25.37748 -80.68403 25746 ft 434 kts 196°
2026-05-08 01:39 25.34834 -80.69168 25160 ft 436 kts 197°
2026-05-08 01:39 25.31889 -80.69992 24617 ft 432 kts 198°
2026-05-08 01:39 25.28996 -80.70818 23986 ft 428 kts 198°
2026-05-08 01:40 25.26138 -80.71632 23460 ft 421 kts 198°
2026-05-08 01:40 25.23304 -80.72434 22906 ft 417 kts 197°
2026-05-08 01:40 25.20496 -80.73220 22313 ft 416 kts 197°
2026-05-08 01:40 25.17695 -80.74000 21806 ft 413 kts 197°
2026-05-08 01:41 25.14918 -80.74774 21243 ft 410 kts 197°
2026-05-08 01:41 25.12169 -80.75540 20702 ft 408 kts 197°
2026-05-08 01:41 25.09436 -80.76302 20195 ft 404 kts 197°
2026-05-08 01:41 25.06707 -80.77064 19589 ft 403 kts 196°
2026-05-08 01:42 25.04000 -80.77819 19119 ft 398 kts 196°
2026-05-08 01:42 25.01313 -80.78612 18547 ft 395 kts 202°
2026-05-08 01:42 24.98977 -80.80082 18086 ft 387 kts 221°
2026-05-08 01:42 24.96956 -80.82056 17525 ft 387 kts 225°
2026-05-08 01:43 24.95007 -80.84097 17046 ft 383 kts 226°
2026-05-08 01:43 24.93082 -80.86104 16498 ft 381 kts 225°
2026-05-08 01:43 24.91137 -80.88069 16032 ft 377 kts 224°
2026-05-08 01:43 24.89192 -80.89993 15508 ft 375 kts 223°
2026-05-08 01:44 24.87250 -80.91893 15010 ft 373 kts 223°
2026-05-08 01:44 24.85331 -80.93753 14544 ft 366 kts 223°
2026-05-08 01:44 24.83418 -80.95618 14022 ft 360 kts 223°
2026-05-08 01:44 24.81604 -80.97412 13598 ft 353 kts 223°
2026-05-08 01:45 24.79788 -80.99219 13105 ft 348 kts 223°
2026-05-08 01:45 24.78000 -81.00997 12646 ft 343 kts 223°
2026-05-08 01:45 24.76414 -81.02912 12198 ft 335 kts 234°
2026-05-08 01:45 24.75153 -81.05022 11742 ft 330 kts 239°
2026-05-08 01:46 24.74003 -81.07168 11331 ft 325 kts 240°
2026-05-08 01:46 24.72860 -81.09340 10875 ft 322 kts 240°
2026-05-08 01:46 24.71732 -81.11423 10472 ft 317 kts 239°
2026-05-08 01:46 24.70582 -81.13481 10047 ft 314 kts 238°
2026-05-08 01:47 24.69431 -81.15510 9632 ft 311 kts 238°
2026-05-08 01:47 24.68300 -81.17505 9370 ft 303 kts 238°
2026-05-08 01:47 24.67205 -81.19454 9123 ft 295 kts 239°
2026-05-08 01:48 24.65091 -81.23230 8524 ft 284 kts 239°
2026-05-08 01:48 24.64059 -81.25002 8412 ft 279 kts 234°
2026-05-08 01:48 24.62787 -81.26678 8358 ft 284 kts 227°
2026-05-08 01:48 24.61493 -81.28147 8291 ft 287 kts 225°
2026-05-08 01:49 24.60077 -81.29749 8304 ft 286 kts 227°
2026-05-08 01:49 24.58746 -81.31368 8301 ft 286 kts 229°
2026-05-08 01:49 24.57462 -81.33033 8306 ft 287 kts 230°
2026-05-08 01:49 24.56196 -81.34720 8294 ft 286 kts 235°
2026-05-08 01:50 24.55260 -81.36476 8297 ft 286 kts 242°
2026-05-08 01:50 24.54324 -81.38410 8302 ft 286 kts 243°
2026-05-08 01:50 24.53410 -81.40358 8305 ft 286 kts 243°
2026-05-08 01:50 24.52513 -81.42277 8304 ft 286 kts 243°
2026-05-08 01:51 24.51599 -81.44225 8301 ft 286 kts 243°
2026-05-08 01:51 24.50684 -81.46165 8301 ft 286 kts 243°
2026-05-08 01:51 24.49763 -81.48098 8300 ft 286 kts 242°
2026-05-08 01:51 24.48850 -81.50018 8302 ft 286 kts 243°
2026-05-08 01:52 24.47934 -81.51954 8300 ft 286 kts 243°
2026-05-08 01:52 24.47020 -81.53875 8154 ft 289 kts 242°
2026-05-08 01:52 24.46388 -81.55928 8120 ft 281 kts 262°
2026-05-08 01:52 24.46247 -81.58066 8098 ft 284 kts 269°
2026-05-08 01:53 24.46298 -81.60246 7910 ft 287 kts 272°
2026-05-08 01:53 24.46385 -81.62430 7759 ft 282 kts 271°
2026-05-08 01:53 24.46418 -81.64573 7646 ft 282 kts 270°
2026-05-08 01:53 24.46401 -81.66706 7475 ft 275 kts 269°
2026-05-08 01:54 24.46364 -81.68759 7421 ft 261 kts 268°
2026-05-08 01:54 24.46332 -81.70707 7289 ft 253 kts 269°
2026-05-08 01:54 24.46311 -81.72641 6978 ft 253 kts 269°
2026-05-08 01:54 24.46289 -81.74570 6700 ft 251 kts 269°
2026-05-08 01:55 24.46271 -81.76452 6412 ft 249 kts 269°
2026-05-08 01:55 24.46258 -81.78372 6053 ft 251 kts 269°
2026-05-08 01:55 24.46241 -81.80295 5714 ft 251 kts 269°
2026-05-08 01:55 24.46221 -81.82223 5404 ft 251 kts 269°
2026-05-08 01:56 24.46199 -81.84137 5024 ft 253 kts 269°
2026-05-08 01:56 24.46181 -81.86063 4678 ft 254 kts 269°
2026-05-08 01:56 24.46159 -81.88009 4331 ft 254 kts 269°
2026-05-08 01:56 24.46136 -81.89953 4054 ft 253 kts 269°
2026-05-08 01:57 24.46119 -81.91873 3687 ft 254 kts 269°
2026-05-08 01:57 24.46102 -81.93828 3355 ft 254 kts 270°
2026-05-08 01:57 24.46469 -81.95674 3046 ft 251 kts 302°
2026-05-08 01:57 24.47707 -81.96856 3182 ft 229 kts 340°
2026-05-08 01:58 24.49241 -81.97081 3175 ft 221 kts
2026-05-08 01:58 24.50758 -81.96960 3200 ft 222 kts
2026-05-08 01:58 24.52308 -81.96794 3211 ft 224 kts
2026-05-08 01:58 24.53848 -81.96512 3216 ft 224 kts 21°
2026-05-08 01:59 24.55120 -81.95542 3207 ft 224 kts 53°
2026-05-08 01:59 24.55750 -81.93980 2739 ft 238 kts 80°
2026-05-08 01:59 24.55887 -81.92054 1877 ft 258 kts 90°
2026-05-08 01:59 24.55753 -81.90046 1384 ft 260 kts 96°
2026-05-08 02:00 24.55567 -81.88139 1404 ft 244 kts 94°
2026-05-08 02:00 24.55468 -81.86375 1360 ft 223 kts 91°
2026-05-08 02:00 24.55448 -81.84720 1403 ft 211 kts 89°
2026-05-08 02:00 24.55476 -81.83101 1357 ft 205 kts 87°
2026-05-08 02:01 24.55527 -81.81633 988 ft 186 kts 86°
2026-05-08 02:01 24.55566 -81.80277 646 ft 168 kts 88°
2026-05-08 02:01 24.55582 -81.79092 414 ft 145 kts 89°
2026-05-08 02:01 24.55589 -81.78008 238 ft 137 kts 89°
2026-05-08 02:02 24.55599 -81.77360 135 ft 133 kts 88°
2026-05-08 02:02 24.55611 -81.76344 5 ft 117 kts 89°
2026-05-08 02:02 24.55616 -81.75640 14 ft 63 kts 89°
2026-05-08 02:02 24.55621 -81.75347 13 ft 21 kts 92°
2026-05-08 02:03 24.55576 -81.75256 13 ft 13 kts 165°
2026-05-08 02:03 24.55534 -81.75300 14 ft 9 kts 265°
2026-05-08 02:03 24.55532 -81.75339 15 ft 1 kts 268°
2026-05-08 02:03 24.55533 -81.75355 15 ft 3 kts 271°
2026-05-08 02:04 24.55533 -81.75384 15 ft 4 kts 270°
2026-05-08 02:04 24.55533 -81.75402 15 ft 2 kts 270°
2026-05-08 02:04 24.55533 -81.75421 15 ft 4 kts 270°
2026-05-08 02:04 24.55520 -81.75449 14 ft 4 kts 203°
2026-05-08 02:05 24.55490 -81.75468 15 ft 6 kts 228°
2026-05-08 02:05 24.55473 -81.75489 15 ft 2 kts 227°
2026-05-08 02:05 24.55470 -81.75493 14 ft 0 kts 227°